DW7214 Weather Reports


time (UTC)temp
C
wind
direction
speed
KPH
gust
KPH
rain 1hr
cm
rain 24hr
cm
rain mn
cm
humidity
%
barometer
mb
20220127135317 2 42 4.8 0.0 0.00 0.00 0.00 71 1023.9
20220127134809 2 52 3.2 0.0 0.00 0.00 0.00 71 1023.9
20220127134301 1 66 1.6 0.0 0.00 0.00 0.00 71 1023.8
20220127133812 1 63 1.6 0.0 0.00 0.00 0.00 71 1023.8
20220127133306 2 50 3.2 0.0 0.00 0.00 0.00 71 1023.8
20220127132802 2 58 6.4 0.0 0.00 0.00 0.00 71 1023.6
20220127132314 2 57 6.4 0.0 0.00 0.00 0.00 71 1023.6
20220127131807 2 49 8.0 0.0 0.00 0.00 0.00 71 1023.6
20220127131259 2 44 8.0 0.0 0.00 0.00 0.00 71 1023.4
20220127130819 2 24 8.0 0.0 0.00 0.00 0.00 71 1023.4
20220127130301 2 57 8.0 0.0 0.00 0.00 0.00 71 1023.4
20220127125813 2 62 8.0 0.0 0.00 0.00 0.00 71 1023.5
20220127125305 2 19 8.0 0.0 0.00 0.00 0.00 71 1023.5
20220127124817 2 59 6.4 0.0 0.00 0.00 0.00 71 1023.5
20220127124312 2 53 3.2 0.0 0.00 0.00 0.00 71 1023.5
20220127123801 2 34 1.6 0.0 0.00 0.00 0.00 71 1023.5
20220127123316 2 61 4.8 0.0 0.00 0.00 0.00 71 1023.5
20220127122808 2 71 4.8 0.0 0.00 0.00 0.00 71 1023.6
20220127122300 2 15 3.2 0.0 0.00 0.00 0.00 71 1023.6
20220127121812 2 73 3.2 0.0 0.00 0.00 0.00 71 1023.6
20220127121303 2 37 6.4 0.0 0.00 0.00 0.00 71 1023.3
20220127120823 2 46 8.0 0.0 0.00 0.00 0.00 71 1023.3
20220127120304 2 54 11.3 0.0 0.00 0.00 0.00 71 1023.3
20220127115800 2 39 9.7 0.0 0.00 0.00 0.00 71 1023.1
20220127115312 2 11 9.7 0.0 0.00 0.00 0.00 71 1023.1
20220127114802 2 26 11.3 0.0 0.00 0.00 0.00 71 1023.2
20220127114315 2 42 11.3 0.0 0.00 0.00 0.00 71 1023.2
20220127113803 2 33 11.3 0.0 0.00 0.00 0.00 71 1023.2
20220127113318 2 5 12.9 0.0 0.00 0.00 0.00 71 1023.2
20220127112809 2 69 12.9 0.0 0.00 0.00 0.00 71 1023.2
20220127112305 2 5 12.9 0.0 0.00 0.00 0.00 70 1023.2
20220127111812 2 355 12.9 0.0 0.00 0.00 0.00 70 1023.2
20220127111308 2 34 11.3 0.0 0.00 0.00 0.00 70 1023.2
20220127110829 2 30 11.3 0.0 0.00 0.00 0.00 70 1023.2
20220127110314 2 15 11.3 0.0 0.00 0.00 0.00 70 1023.2
20220127105805 2 34 12.9 0.0 0.00 0.00 0.00 70 1023.2
20220127105318 2 355 12.9 0.0 0.00 0.00 0.00 70 1023.2
20220127104809 2 348 11.3 0.0 0.00 0.00 0.00 70 1023.2
20220127104301 2 27 8.0 0.0 0.00 0.00 0.00 70 1023.4
20220127103810 2 48 6.4 0.0 0.00 0.00 0.00 71 1023.4
20220127103305 2 41 6.4 0.0 0.00 0.00 0.00 71 1023.4
20220127102800 2 63 4.8 0.0 0.00 0.00 0.00 70 1023.3
20220127102312 2 40 4.8 0.0 0.00 0.00 0.00 70 1023.3
20220127101805 2 68 4.8 0.0 0.00 0.00 0.00 70 1023.3
20220127101316 2 39 4.8 0.0 0.00 0.00 0.00 70 1023.0
20220127100816 2 17 6.4 0.0 0.00 0.00 0.00 70 1023.0
20220127100259 2 35 6.4 0.0 0.00 0.00 0.00 70 1023.0
20220127095811 2 38 4.8 0.0 0.00 0.00 0.00 70 1023.0
20220127095305 2 30 4.8 0.0 0.00 0.00 0.00 71 1023.0
20220127094812 2 60 4.8 0.0 0.00 0.00 0.00 70 1023.0
20220127094308 2 20 3.2 0.0 0.00 0.00 0.00 71 1023.0
20220127093816 2 59 1.6 0.0 0.00 0.00 0.00 71 1023.0
20220127093310 2 33 0.0 0.0 0.00 0.00 0.00 71 1023.0
20220127092802 2 25 0.0 0.0 0.00 0.00 0.00 70 1022.9
20220127092313 2 11 3.2 0.0 0.00 0.00 0.00 70 1022.9
20220127091804 2 30 3.2 0.0 0.00 0.00 0.00 70 1022.9
20220127091316 2 5 4.8 0.0 0.00 0.00 0.00 71 1022.8
20220127090817 2 360 4.8 0.0 0.00 0.00 0.00 71 1022.8
20220127090258 2 38 4.8 0.0 0.00 0.00 0.00 71 1022.8
20220127085810 2 63 6.4 0.0 0.00 0.00 0.00 71 1022.7
20220127085306 2 59 8.0 0.0 0.00 0.00 0.00 71 1022.7
20220127084819 2 5 8.0 0.0 0.00 0.00 0.00 71 1022.7
20220127084309 2 30 6.4 0.0 0.00 0.00 0.00 71 1022.7
20220127083818 2 44 4.8 0.0 0.00 0.00 0.00 71 1022.7
20220127083313 2 63 3.2 0.0 0.00 0.00 0.00 71 1022.7
20220127082805 2 64 1.6 0.0 0.00 0.00 0.00 71 1022.7
20220127082317 2 34 4.8 0.0 0.00 0.00 0.00 70 1022.7
20220127081810 2 59 3.2 0.0 0.00 0.00 0.00 70 1022.7
20220127081304 2 41 1.6 0.0 0.00 0.00 0.00 71 1022.6
20220127080824 2 38 0.0 0.0 0.00 0.00 0.00 71 1022.6
20220127080307 2 39 1.6 0.0 0.00 0.00 0.00 71 1022.6
20220127075759 2 39 1.6 0.0 0.00 0.00 0.00 71 1022.5
20220127075310 2 56 0.0 0.0 0.00 0.00 0.00 71 1022.5
20220127074801 2 57 0.0 0.0 0.00 0.00 0.00 71 1022.5
20220127074313 2 44 0.0 0.0 0.00 0.00 0.00 71 1022.4
20220127073803 2 44 0.0 0.0 0.00 0.00 0.00 72 1022.4
20220127073258 1 44 0.0 0.0 0.00 0.00 0.00 72 1022.4
20220127072810 1 44 0.0 0.0 0.00 0.00 0.00 72 1022.4
20220127072306 1 44 0.0 0.0 0.00 0.00 0.00 72 1022.4
20220127071817 1 44 0.0 0.0 0.00 0.00 0.00 72 1022.4
20220127071308 2 44 0.0 0.0 0.00 0.00 0.00 72 1022.5
20220127070827 2 44 0.0 0.0 0.00 0.00 0.00 71 1022.5
20220127070309 2 44 0.0 0.0 0.00 0.00 0.00 71 1022.5
20220127065800 2 44 0.0 0.0 0.00 0.00 0.00 71 1022.4
20220127065312 2 44 0.0 0.0 0.00 0.00 0.00 71 1022.4
20220127064803 2 44 0.0 0.0 0.00 0.00 0.00 71 1022.4
20220127064300 2 53 0.0 0.0 0.00 0.00 0.00 71 1022.0
20220127063809 2 53 0.0 0.0 0.00 0.00 0.00 71 1022.0
20220127063304 2 54 1.6 0.0 0.00 0.00 0.00 71 1022.0
20220127062815 2 57 1.6 0.0 0.00 0.00 0.00 71 1021.9
20220127062307 2 46 3.2 0.0 0.00 0.00 0.00 71 1021.9
20220127061800 2 35 4.8 0.0 0.00 0.00 0.00 70 1021.9
20220127061311 2 64 6.4 0.0 0.00 0.00 0.00 70 1021.9
20220127060828 2 49 6.4 0.0 0.00 0.00 0.00 70 1021.9
20220127060308 2 53 6.4 0.0 0.00 0.00 0.00 70 1021.9
20220127055758 2 52 6.4 0.0 0.00 0.00 0.00 70 1021.9
20220127055314 2 39 4.8 0.0 0.00 0.00 0.00 70 1021.9
20220127054806 2 40 4.8 0.0 0.00 0.00 0.00 70 1021.9
20220127054315 2 57 4.8 0.0 0.00 0.00 0.00 70 1021.8
20220127053802 2 71 4.8 0.0 0.00 0.00 0.00 70 1021.8
20220127053314 2 65 3.2 0.0 0.00 0.00 0.00 71 1021.8
20220127052803 2 52 3.2 0.0 0.00 0.00 0.00 71 1021.7
20220127052310 2 49 4.8 0.0 0.00 0.00 0.00 70 1021.7
20220127051802 2 55 3.2 0.0 0.00 0.00 0.00 70 1021.7
20220127051313 2 92 3.2 0.0 0.00 0.00 0.00 71 1021.5
20220127050816 2 39 4.8 0.0 0.00 0.00 0.00 71 1021.5
20220127050316 2 28 1.6 0.0 0.00 0.00 0.00 71 1021.5
20220127045805 2 71 0.0 0.0 0.00 0.00 0.00 71 1021.4
20220127045313 2 65 0.0 0.0 0.00 0.00 0.00 71 1021.4
20220127044804 2 65 0.0 0.0 0.00 0.00 0.00 71 1021.4
20220127044311 2 65 0.0 0.0 0.00 0.00 0.00 71 1021.3
20220127043820 2 65 0.0 0.0 0.00 0.00 0.00 71 1021.3
20220127043313 2 65 0.0 0.0 0.00 0.00 0.00 71 1021.3
20220127042804 2 65 0.0 0.0 0.00 0.00 0.00 71 1021.3
20220127042311 3 65 0.0 0.0 0.00 0.00 0.00 71 1021.3
20220127041803 3 65 0.0 0.0 0.00 0.00 0.00 70 1021.3
20220127041313 3 65 0.0 0.0 0.00 0.00 0.00 70 1021.4
20220127040832 3 65 1.6 0.0 0.00 0.00 0.00 70 1021.4
20220127040314 3 58 4.8 0.0 0.00 0.00 0.00 69 1021.4
20220127035801 3 53 4.8 0.0 0.00 0.00 0.00 69 1021.2
20220127035309 4 56 3.2 0.0 0.00 0.00 0.00 69 1021.2
20220127034759 4 55 3.2 0.0 0.00 0.00 0.00 70 1021.2
20220127034308 4 71 3.2 0.0 0.00 0.00 0.00 70 1021.2
20220127033811 4 42 1.6 0.0 0.00 0.00 0.00 70 1021.2
20220127033301 3 48 0.0 0.0 0.00 0.00 0.00 70 1021.2
20220127032810 3 48 0.0 0.0 0.00 0.00 0.00 70 1021.1
20220127032305 3 48 0.0 0.0 0.00 0.00 0.00 70 1021.1
20220127031815 3 48 0.0 0.0 0.00 0.00 0.00 71 1021.1
20220127031306 3 48 0.0 0.0 0.00 0.00 0.00 71 1020.9
20220127030825 3 48 0.0 0.0 0.00 0.00 0.00 70 1020.9
20220127030307 3 48 0.0 0.0 0.00 0.00 0.00 70 1020.9
20220127025818 4 48 0.0 0.0 0.00 0.00 0.00 70 1020.8
20220127025309 4 48 0.0 0.0 0.00 0.00 0.00 70 1020.8
20220127024800 4 48 0.0 0.0 0.00 0.00 0.00 70 1020.8
20220127024311 4 48 0.0 0.0 0.00 0.00 0.00 70 1020.8
20220127023804 4 48 0.0 0.0 0.00 0.00 0.00 70 1020.8
20220127023316 4 48 0.0 0.0 0.00 0.00 0.00 70 1020.8
20220127022807 4 48 0.0 0.0 0.00 0.00 0.00 70 1020.8
20220127022317 4 48 0.0 0.0 0.00 0.00 0.00 70 1020.8
20220127021808 4 48 0.0 0.0 0.00 0.00 0.00 70 1020.8
20220127021319 4 48 0.0 0.0 0.00 0.00 0.00 70 1020.5
20220127020817 4 48 0.0 0.0 0.00 0.00 0.00 70 1020.5
20220127020301 5 48 0.0 0.0 0.00 0.00 0.00 70 1020.5
20220127015812 5 48 0.0 0.0 0.00 0.00 0.00 69 1020.7
20220127015307 5 48 0.0 0.0 0.00 0.00 0.00 69 1020.7
20220127014818 5 48 0.0 0.0 0.00 0.00 0.00 69 1020.7
20220127014308 5 48 1.6 0.0 0.00 0.00 0.00 68 1020.4
20220127013817 6 46 3.2 0.0 0.00 0.00 0.00 68 1020.5
20220127013311 6 43 3.2 0.0 0.00 0.00 0.00 67 1020.5
20220127012801 6 47 3.2 0.0 0.00 0.00 0.00 68 1020.3
20220127012311 6 49 3.2 0.0 0.00 0.00 0.00 68 1020.3
20220127011800 6 61 1.6 0.0 0.00 0.00 0.00 68 1020.3
20220127011310 6 68 0.0 0.0 0.00 0.00 0.00 68 1020.3
20220127010828 6 68 0.0 0.0 0.00 0.00 0.00 67 1020.3
20220127010314 6 68 0.0 0.0 0.00 0.00 0.00 67 1020.3
20220127005802 7 68 1.6 0.0 0.00 0.00 0.00 67 1020.3
20220127005312 7 68 1.6 0.0 0.00 0.00 0.00 66 1020.3
20220127004803 7 68 1.6 0.0 0.00 0.00 0.00 65 1020.3
20220127004315 7 68 1.6 0.0 0.00 0.00 0.00 65 1020.3
20220127003804 7 68 1.6 0.0 0.00 0.00 0.00 64 1020.3
20220127003318 7 68 3.2 0.0 0.00 0.00 0.00 64 1020.3
20220127002806 7 68 3.2 0.0 0.00 0.00 0.00 64 1020.3
20220127002317 7 65 3.2 0.0 0.00 0.00 0.00 64 1020.3
20220127001812 7 65 3.2 0.0 0.00 0.00 0.00 64 1020.3
20220127001303 7 57 3.2 0.0 0.00 0.00 0.00 64 1020.2
20220127000822 7 57 4.8 0.0 0.00 0.00 0.00 63 1020.2
20220127000306 7 58 3.2 0.0 0.00 0.00 0.00 63 1020.3
20220126235817 8 53 3.2 0.0 0.00 0.00 0.00 63 1020.3
20220126235308 8 50 4.8 0.0 0.00 0.00 0.00 62 1020.3
20220126234819 8 47 3.2 0.0 0.00 0.00 0.00 62 1020.3
20220126234310 8 43 3.2 0.0 0.00 0.00 0.00 63 1020.3
20220126233819 8 57 3.2 0.0 0.00 0.00 0.00 64 1020.3
20220126233311 8 55 3.2 0.0 0.00 0.00 0.00 64 1020.3
20220126232806 8 54 3.2 0.0 0.00 0.00 0.00 64 1020.1
20220126232317 8 47 3.2 0.0 0.00 0.00 0.00 64 1020.1
20220126231808 7 63 3.2 0.0 0.00 0.00 0.00 64 1020.1
20220126231319 7 24 4.8 0.0 0.00 0.00 0.00 64 1020.1
20220126230820 7 25 4.8 0.0 0.00 0.00 0.00 64 1020.1
20220126230302 7 10 4.8 0.0 0.00 0.00 0.00 64 1020.1
20220126225813 7 38 3.2 0.0 0.00 0.00 0.00 64 1020.0
20220126225306 7 35 4.8 0.0 0.00 0.00 0.00 64 1020.0
20220126224800 7 42 4.8 0.0 0.00 0.00 0.00 64 1020.0
20220126224311 7 44 4.8 0.0 0.00 0.00 0.00 64 1019.8
20220126223820 7 72 6.4 0.0 0.00 0.00 0.00 64 1019.8
20220126223312 7 34 6.4 0.0 0.00 0.00 0.00 64 1019.8
20220126222803 7 48 4.8 0.0 0.00 0.00 0.00 64 1019.8
20220126222314 7 330 3.2 0.0 0.00 0.00 0.00 63 1019.8
20220126221805 7 329 3.2 0.0 0.00 0.00 0.00 63 1019.8
20220126221316 7 5 3.2 0.0 0.00 0.00 0.00 64 1019.8
20220126220814 7 355 1.6 0.0 0.00 0.00 0.00 65 1019.8
20220126220317 7 287 3.2 0.0 0.00 0.00 0.00 65 1019.8
20220126215812 7 37 3.2 0.0 0.00 0.00 0.00 65 1019.8
20220126215306 7 350 3.2 0.0 0.00 0.00 0.00 65 1019.8
20220126214814 7 344 3.2 0.0 0.00 0.00 0.00 66 1019.8
20220126214305 7 339 1.6 0.0 0.00 0.00 0.00 65 1019.9
20220126213814 7 24 3.2 0.0 0.00 0.00 0.00 66 1019.9
20220126213307 6 24 4.8 0.0 0.00 0.00 0.00 65 1019.9
20220126212818 7 5 1.6 0.0 0.00 0.00 0.00 66 1020.1
20220126212309 6 13 3.2 0.0 0.00 0.00 0.00 66 1020.1
20220126211800 6 13 4.8 0.0 0.00 0.00 0.00 67 1020.1
20220126211315 6 17 3.2 0.0 0.00 0.00 0.00 66 1020.2
20220126210815 6 330 3.2 0.0 0.00 0.00 0.00 66 1020.2
20220126210317 6 348 1.6 0.0 0.00 0.00 0.00 66 1020.2
20220126205808 6 19 0.0 0.0 0.00 0.00 0.00 66 1020.3
20220126205319 6 5 1.6 0.0 0.00 0.00 0.00 67 1020.3
20220126204810 6 5 3.2 0.0 0.00 0.00 0.00 67 1020.3
20220126204301 6 355 3.2 0.0 0.00 0.00 0.00 67 1020.4
20220126203809 6 40 1.6 0.0 0.00 0.00 0.00 67 1020.4
20220126203302 6 77 1.6 0.0 0.00 0.00 0.00 67 1020.4
20220126202813 5 77 3.2 0.0 0.00 0.00 0.00 68 1020.9
20220126202308 5 77 4.8 0.0 0.00 0.00 0.00 68 1020.8
20220126201819 5 79 4.8 0.0 0.00 0.00 0.00 68 1020.8
20220126201311 5 93 4.8 0.0 0.00 0.00 0.00 68 1020.8
20220126200824 5 89 4.8 0.0 0.00 0.00 0.00 68 1020.8
20220126200304 5 19 4.8 0.0 0.00 0.00 0.00 68 1020.8
20220126195815 4 13 3.2 0.0 0.00 0.00 0.00 68 1021.0
20220126195306 4 347 3.2 0.0 0.00 0.00 0.00 68 1021.0
20220126194814 4 67 3.2 0.0 0.00 0.00 0.00 68 1021.0
20220126194305 4 88 3.2 0.0 0.00 0.00 0.00 68 1021.4
20220126193812 3 82 3.2 0.0 0.00 0.00 0.00 68 1021.3
20220126193303 3 74 3.2 0.0 0.00 0.00 0.00 68 1021.3
20220126192814 3 52 3.2 0.0 0.00 0.00 0.00 68 1021.4
20220126192306 3 44 4.8 0.0 0.00 0.00 0.00 68 1021.4
20220126191817 3 80 4.8 0.0 0.00 0.00 0.00 68 1021.4
20220126191308 3 56 3.2 0.0 0.00 0.00 0.00 69 1021.4
20220126190829 3 70 3.2 0.0 0.00 0.00 0.00 69 1021.4
20220126190311 3 71 4.8 0.0 0.00 0.00 0.00 69 1021.4
20220126185802 3 72 3.2 0.0 0.00 0.00 0.00 69 1021.0
20220126185313 3 76 3.2 0.0 0.00 0.00 0.00 69 1021.0
20220126184808 3 84 3.2 0.0 0.00 0.00 0.00 69 1021.0
20220126184319 3 73 3.2 0.0 0.00 0.00 0.00 68 1020.9
20220126183809 3 78 1.6 0.0 0.00 0.00 0.00 68 1020.9
20220126183301 2 79 1.6 0.0 0.00 0.00 0.00 68 1020.9
20220126182811 2 61 3.2 0.0 0.00 0.00 0.00 68 1020.8
20220126182305 2 51 4.8 0.0 0.00 0.00 0.00 68 1020.8
20220126181813 2 64 4.8 0.0 0.00 0.00 0.00 68 1020.8
20220126181304 2 77 3.2 0.0 0.00 0.00 0.00 68 1020.8
20220126180824 2 71 3.2 0.0 0.00 0.00 0.00 68 1020.8
20220126180309 2 70 3.2 0.0 0.00 0.00 0.00 68 1020.8
20220126175800 2 54 3.2 0.0 0.00 0.00 0.00 68 1020.8
20220126175311 2 44 1.6 0.0 0.00 0.00 0.00 68 1020.8
20220126174802 2 5 3.2 0.0 0.00 0.00 0.00 68 1020.8
20220126174313 2 5 4.8 0.0 0.00 0.00 0.00 68 1020.4
20220126173822 2 15 6.4 0.0 0.00 0.00 0.00 68 1020.4
20220126173315 2 24 4.8 0.0 0.00 0.00 0.00 68 1020.4
20220126172806 2 87 1.6 0.0 0.00 0.00 0.00 67 1020.3
20220126172317 2 61 0.0 0.0 0.00 0.00 0.00 67 1020.3
20220126171812 2 49 0.0 0.0 0.00 0.00 0.00 67 1020.3
20220126171303 1 49 1.6 0.0 0.00 0.00 0.00 66 1020.2
20220126170823 1 49 1.6 0.0 0.00 0.00 0.00 66 1020.2
20220126170305 1 49 1.6 0.0 0.00 0.00 0.00 65 1020.2
20220126165816 1 49 1.6 0.0 0.00 0.00 0.00 64 1020.2
20220126165307 1 49 1.6 0.0 0.00 0.00 0.00 63 1020.2
20220126164817 1 49 3.2 0.0 0.00 0.00 0.00 62 1020.2
20220126164308 1 49 3.2 0.0 0.00 0.00 0.00 60 1020.1
20220126163815 1 26 1.6 0.0 0.00 0.00 0.00 55 1020.1
20220126163309 1 53 0.0 0.0 0.00 0.00 0.00 49 1020.1
20220126162804 1 35 0.0 0.0 0.00 0.00 0.00 45 1020.0
20220126162315 1 35 0.0 0.0 0.00 0.00 0.00 40 1020.0
20220126161806 1 35 1.6 0.0 0.00 0.00 0.00 31 1020.0
20220126161317 0 31 0.0 0.0 0.00 0.00 0.00 24 1019.9
20220126160817 0 48 0.0 0.0 0.00 0.00 0.00 20 1019.8
20220126160301 0 48 0.0 0.0 0.00 0.00 0.00 23 1019.8
20220126155812 -1 48 0.0 0.0 0.00 0.00 0.00 32 1019.8
20220126155306 -1 48 0.0 0.0 0.00 0.00 0.00 39 1019.8
20220126154814 -1 48 0.0 0.0 0.00 0.00 0.00 41 1019.8
20220126154309 -1 48 0.0 0.0 0.00 0.00 0.00 39 1019.7
20220126153816 0 47 0.0 0.0 0.00 0.00 0.00 29 1019.8
20220126153306 0 47 0.0 0.0 0.00 0.00 0.00 27 1019.8
20220126152817 0 47 0.0 0.0 0.00 0.00 0.00 25 1019.8
20220126152308 0 47 0.0 0.0 0.00 0.00 0.00 30 1019.8
20220126151819 -1 47 0.0 0.0 0.00 0.00 0.00 35 1019.7
20220126151310 -1 47 0.0 0.0 0.00 0.00 0.00 43 1019.4
20220126150831 -1 47 0.0 0.0 0.00 0.00 0.00 48 1019.4
20220126150313 -2 47 0.0 0.0 0.00 0.00 0.00 53 1019.3
20220126145808 -2 47 0.0 0.0 0.00 0.00 0.00 57 1019.3
20220126145319 -2 47 0.0 0.0 0.00 0.00 0.00 60 1019.3
20220126144807 -2 47 0.0 0.0 0.00 0.00 0.00 62 1019.3
20220126144318 -1 47 0.0 0.0 0.00 0.00 0.00 64 1019.2
20220126143806 -1 47 0.0 0.0 0.00 0.00 0.00 65 1019.2
20220126143300 0 47 0.0 0.0 0.00 0.00 0.00 61 1019.2
20220126142811 0 47 0.0 0.0 0.00 0.00 0.00 62 1019.2
20220126142302 0 47 0.0 0.0 0.00 0.00 0.00 63 1019.2
20220126141813 0 47 0.0 0.0 0.00 0.00 0.00 64 1019.2
20220126141308 0 47 0.0 0.0 0.00 0.00 0.00 64 1019.2
20220126140828 0 47 0.0 0.0 0.00 0.00 0.00 65 1019.2
20220126140310 0 47 0.0 0.0 0.00 0.00 0.00 65 1019.2
20220126135801 0 47 0.0 0.0 0.00 0.00 0.00 65 1019.2